OZ1IEP-5 Weather Reports


Display with metric or nautical units.
time (UTC)temp
F
wind
direction
speed
MPH
gust
MPH
rain 1hr
in
rain 24hr
in
rain mn
in
humidity
%
barometer
mb
20260508050008 45 34 0.0 0.0 0.00 0.00 0.00 91 1020.0
20260508045006 45 34 0.0 0.0 0.00 0.00 0.00 92 1019.9
20260508044006 44 34 0.0 0.0 0.00 0.00 0.00 92 1019.9
20260508043008 43 34 0.0 0.0 0.00 0.00 0.00 91 1019.9
20260508042006 42 34 0.0 0.0 0.00 0.00 0.00 91 1019.9
20260508041005 42 34 0.0 0.0 0.00 0.00 0.00 91 1019.8
20260508040015 41 34 0.0 0.0 0.00 0.00 0.00 91 1019.7
20260508035006 41 34 0.0 0.0 0.00 0.00 0.00 91 1019.6
20260508034007 41 34 0.0 0.0 0.00 0.00 0.00 90 1019.5
20260508033009 41 34 0.0 0.0 0.00 0.00 0.00 90 1019.5
20260508032007 42 34 0.0 0.0 0.00 0.00 0.00 90 1019.5
20260508031007 42 34 0.0 0.0 0.00 0.00 0.00 90 1019.4
20260508030007 42 34 0.0 0.0 0.00 0.00 0.00 90 1019.4
20260508025005 42 34 0.0 0.0 0.00 0.00 0.00 90 1019.4
20260508024005 41 34 0.0 0.0 0.00 0.00 0.00 90 1019.3
20260508023007 42 34 0.0 0.0 0.00 0.00 0.00 90 1019.3
20260508022006 41 34 0.0 0.0 0.00 0.00 0.00 89 1019.3
20260508021005 41 34 0.0 0.0 0.00 0.00 0.00 89 1019.3
20260508020008 41 34 0.0 0.0 0.00 0.00 0.00 89 1019.3
20260508015005 41 34 0.0 0.0 0.00 0.00 0.00 88 1019.3
20260508014006 41 34 0.0 0.0 0.00 0.00 0.00 88 1019.2
20260508013008 41 34 0.0 0.0 0.00 0.00 0.00 88 1019.1
20260508012006 41 34 0.0 0.0 0.00 0.00 0.00 87 1019.0
20260508011005 42 34 0.0 0.0 0.00 0.00 0.00 87 1019.1
20260508010007 42 34 0.0 0.0 0.00 0.00 0.00 88 1019.0
20260508005005 42 34 0.0 0.0 0.00 0.00 0.00 87 1018.9
20260508004006 42 34 0.0 0.0 0.00 0.00 0.00 87 1018.9
20260508003008 42 34 0.0 0.0 0.00 0.00 0.00 87 1018.9
20260508002005 42 34 0.0 0.0 0.00 0.00 0.00 87 1018.9
20260508001005 42 34 0.0 0.0 0.00 0.00 0.00 87 1018.9
20260508000008 42 34 0.0 0.0 0.00 0.00 0.00 86 1018.9
20260507235005 42 33 0.0 0.0 0.00 0.00 0.00 85 1018.8
20260507234005 43 33 0.0 0.0 0.00 0.00 0.00 85 1018.8
20260507233008 43 32 0.0 0.0 0.00 0.00 0.00 85 1018.8
20260507232005 43 32 0.0 0.0 0.00 0.00 0.00 84 1018.8
20260507231006 43 32 0.0 0.0 0.00 0.00 0.00 84 1018.7
20260507230008 43 32 0.0 0.0 0.00 0.00 0.00 83 1018.6
20260507225007 43 32 0.0 0.0 0.00 0.00 0.00 82 1018.6
20260507224005 43 32 0.0 0.0 0.00 0.00 0.00 82 1018.4
20260507223008 44 32 0.0 0.0 0.00 0.00 0.00 83 1018.3
20260507222006 44 32 0.0 0.0 0.00 0.00 0.00 83 1018.3
20260507221005 44 32 0.0 0.0 0.00 0.00 0.00 83 1018.3
20260507220008 44 32 0.0 0.0 0.00 0.00 0.00 82 1018.3
20260507215005 44 32 0.0 0.0 0.00 0.00 0.00 82 1018.3
20260507214006 45 32 0.0 0.0 0.00 0.00 0.00 83 1018.3
20260507213008 45 32 0.0 0.0 0.00 0.00 0.00 83 1018.3
20260507212006 45 32 0.0 0.0 0.00 0.00 0.00 84 1018.2
20260507211006 45 32 0.0 0.0 0.00 0.00 0.00 84 1018.2
20260507210008 45 31 0.0 1.0 0.00 0.00 0.00 83 1018.1
20260507205005 46 30 0.0 1.0 0.00 0.00 0.00 82 1017.9
20260507204005 46 23 0.0 1.0 0.00 0.00 0.00 81 1017.8
20260507203008 46 20 0.0 0.0 0.00 0.00 0.00 81 1017.7
20260507202006 46 298 0.0 0.0 0.00 0.00 0.00 79 1017.6
20260507201005 47 298 0.0 0.0 0.00 0.00 0.00 78 1017.5
20260507200008 47 298 0.0 0.0 0.00 0.00 0.00 77 1017.4
20260507195006 47 298 0.0 0.0 0.00 0.00 0.00 76 1017.3
20260507194006 48 298 0.0 0.0 0.00 0.00 0.00 76 1017.2
20260507193009 48 298 0.0 0.0 0.00 0.00 0.00 75 1017.2
20260507192005 49 298 0.0 0.0 0.00 0.00 0.00 74 1017.0
20260507191006 49 298 0.0 0.0 0.00 0.00 0.00 72 1016.9
20260507190016 49 298 0.0 0.0 0.00 0.00 0.00 70 1016.8
20260507185005 50 298 0.0 0.0 0.00 0.00 0.00 68 1016.7
20260507184006 51 298 0.0 1.0 0.00 0.00 0.00 67 1016.7
20260507183007 52 303 0.0 1.0 0.00 0.00 0.00 66 1016.7
20260507182005 53 309 0.0 2.0 0.00 0.00 0.00 64 1016.7
20260507181005 53 320 0.0 2.0 0.00 0.00 0.00 63 1016.7
20260507180007 53 323 0.0 1.0 0.00 0.00 0.00 63 1016.6
20260507175005 53 353 0.0 2.0 0.00 0.00 0.00 62 1016.6
20260507174005 54 344 1.0 3.0 0.00 0.00 0.00 62 1016.4
20260507173008 54 341 1.0 3.0 0.00 0.00 0.00 61 1016.3
20260507172005 54 354 2.0 5.0 0.00 0.00 0.00 62 1016.2
20260507171006 54 346 2.0 6.0 0.00 0.00 0.00 61 1016.2
20260507170007 54 9 2.0 7.0 0.00 0.00 0.00 60 1016.2
20260507165006 55 333 3.0 6.0 0.00 0.00 0.00 60 1016.2
20260507164006 55 359 2.0 5.0 0.00 0.00 0.00 59 1016.1
20260507163007 55 350 3.0 6.0 0.00 0.00 0.00 62 1016.1
20260507162005 55 353 4.0 7.0 0.00 0.00 0.00 62 1016.1
20260507161006 55 332 2.0 12.0 0.00 0.00 0.00 61 1016.1
20260507160008 55 4 3.0 9.0 0.00 0.00 0.00 62 1016.1
20260507155005 55 0 4.0 9.0 0.00 0.00 0.00 62 1016.0
20260507154009 56 351 4.0 9.0 0.00 0.00 0.00 60 1016.0
20260507153008 56 338 4.0 12.0 0.00 0.00 0.00 61 1016.0
20260507152005 56 340 5.0 12.0 0.00 0.00 0.00 59 1015.9
20260507151005 56 312 1.0 12.0 0.00 0.00 0.00 59 1015.7
20260507150008 56 296 2.0 13.0 0.00 0.00 0.00 59 1015.7
20260507145005 56 299 1.0 12.0 0.00 0.00 0.00 55 1015.7
20260507144005 56 308 2.0 12.0 0.00 0.00 0.00 50 1015.7
20260507143009 56 298 3.0 13.0 0.00 0.00 0.00 48 1015.7
20260507142006 56 291 2.0 12.0 0.00 0.00 0.00 49 1015.7
20260507141007 56 307 4.0 12.0 0.00 0.00 0.00 48 1015.7
20260507140009 56 302 2.0 12.0 0.00 0.00 0.00 49 1015.7
20260507135006 56 295 6.0 14.0 0.00 0.00 0.00 45 1015.7
20260507134006 56 290 2.0 9.0 0.00 0.00 0.00 48 1015.7
20260507133008 56 301 7.0 12.0 0.00 0.00 0.00 47 1015.7
20260507132006 56 292 3.0 14.0 0.00 0.00 0.00 53 1015.7
20260507131006 56 310 7.0 13.0 0.00 0.00 0.00 50 1015.7
20260507130008 56 319 6.0 12.0 0.00 0.00 0.00 49 1015.7
20260507125006 56 297 1.0 9.0 0.00 0.00 0.00 53 1015.7
20260507124006 56 284 5.0 13.0 0.00 0.00 0.00 50 1015.6
20260507123009 56 315 3.0 14.0 0.00 0.00 0.00 55 1015.6
20260507122006 55 306 10.0 14.0 0.00 0.00 0.00 57 1015.6
20260507121006 55 302 10.0 16.0 0.00 0.00 0.00 50 1015.5
20260507120008 56 305 9.0 14.0 0.00 0.00 0.00 57 1015.5
20260507115006 55 294 5.0 13.0 0.00 0.00 0.00 56 1015.3
20260507114006 55 304 8.0 14.0 0.00 0.00 0.00 56 1015.3
20260507113008 55 301 7.0 14.0 0.00 0.00 0.00 57 1015.2
20260507112005 55 295 9.0 14.0 0.00 0.00 0.00 54 1015.3
20260507111006 55 296 2.0 15.0 0.00 0.00 0.00 59 1015.2
20260507110008 55 302 8.0 14.0 0.00 0.00 0.00 57 1015.2
20260507105005 55 296 8.0 14.0 0.00 0.00 0.00 61 1015.2
20260507104005 55 297 9.0 13.0 0.00 0.00 0.00 65 1015.2
20260507103008 55 265 1.0 12.0 0.00 0.00 0.00 70 1015.1
20260507102007 55 302 2.0 10.0 0.00 0.00 0.00 74 1015.1
20260507101006 55 301 5.0 12.0 0.00 0.00 0.00 74 1015.1
20260507100008 55 274 2.0 12.0 0.00 0.00 0.00 75 1015.1
20260507095005 54 290 3.0 12.0 0.00 0.00 0.00 76 1015.1
20260507094006 54 300 3.0 13.0 0.00 0.00 0.00 74 1015.0
20260507093008 54 316 3.0 12.0 0.00 0.00 0.00 73 1014.8
20260507092006 54 287 1.0 10.0 0.00 0.00 0.00 71 1014.7
20260507091006 54 225 1.0 5.0 0.00 0.00 0.00 70 1014.7
20260507090007 54 267 1.0 3.0 0.00 0.00 0.00 72 1014.7
20260507085005 53 234 0.0 3.0 0.00 0.00 0.00 70 1014.6
20260507084005 52 304 1.0 6.0 0.00 0.00 0.00 69 1014.6
20260507083008 52 246 0.0 3.0 0.00 0.00 0.00 70 1014.6
20260507082005 51 298 0.0 2.0 0.00 0.00 0.00 73 1014.6
20260507081006 51 245 0.0 3.0 0.00 0.00 0.00 71 1014.4
20260507080008 50 279 0.0 1.0 0.00 0.00 0.00 72 1014.2
20260507075005 50 309 0.0 1.0 0.00 0.00 0.00 68 1014.1
20260507074005 49 227 0.0 1.0 0.00 0.00 0.00 71 1014.1
20260507073009 48 226 0.0 1.0 0.00 0.00 0.00 71 1014.1
20260507072006 48 264 0.0 0.0 0.00 0.00 0.00 78 1014.1
20260507071006 47 259 0.0 0.0 0.00 0.00 0.00 80 1014.1
20260507070011 46 243 0.0 0.0 0.00 0.00 0.00 85 1014.0
20260507065006 45 243 0.0 0.0 0.00 0.00 0.00 89 1014.0
20260507064005 45 244 0.0 0.0 0.00 0.00 0.00 91 1014.0
20260507063008 45 244 0.0 0.0 0.00 0.00 0.00 92 1013.8
20260507062006 45 244 0.0 0.0 0.00 0.00 0.00 92 1013.7
20260507061005 44 244 0.0 0.0 0.00 0.00 0.00 93 1013.8
20260507060008 44 245 0.0 0.0 0.00 0.00 0.00 92 1013.6
20260507055006 44 139 0.0 0.0 0.00 0.00 0.00 93 1013.6
20260507054006 43 139 0.0 0.0 0.00 0.00 0.00 92 1013.6
20260507053008 43 139 0.0 0.0 0.00 0.00 0.00 93 1013.6
20260507052005 42 139 0.0 0.0 0.00 0.00 0.00 92 1013.5
20260507051006 42 139 0.0 0.0 0.00 0.00 0.00 92 1013.5